Regional Weather Roundup
Issued by NWS

Home | Current Version | Previous Version | Text Only | Print | Product List | Glossary On
Versions: 1 2 3 4 5 6 7 8 9 10 11 12 13 14 15 16 17 18 19 20 21 22 23 24 25 26 27 28 29 30 31 32 33 34 35 36 37 38 39 40 41 42 43 44 45 46 47 48 49 50
000
ASUS46 KSEW 290310
RWRWA

WASHINGTON REGIONAL WEATHER ROUNDUP
NATIONAL WEATHER SERVICE SEATTLE WA
800 PM PDT THU AUG 28 2014

NOTE:"FAIR" INDICATES FEW OR NO CLOUDS BELOW 12,000 FEET WITH NO
SIGNIFICANT WEATHER AND/OR OBSTRUCTIONS TO VISIBILITY.

WAZ505-507>509-290400-
SEATTLE, TACOMA, EVERETT, AND VICINITY

CITY           SKY/WX    TMP DP  RH WIND       PRES   REMARKS
EVERETT        CLOUDY    67  58  72 CALM      30.04F
BOEING FIELD   MOCLDY    74  59  59 CALM      30.02S
RENTON         PTCLDY    73  62  68 CALM      30.02S
SEATAC AIRPORT MOCLDY    71  59  65 SW3       30.04F
JBLM-MCCHORD   PTCLDY    69  60  73 E6        30.04S
PUYALLUP       NOT AVBL
JBLM-FT LEWIS  PTCLDY    69  60  72 W9        30.03S
TACOMA NARROWS MOCLDY    68  59  73 W5        30.03F
$$

WAZ001-503-506-510-514-515-290400-
NORTH INTERIOR

CITY           SKY/WX    TMP DP  RH WIND       PRES   REMARKS
BELLINGHAM     MOCLDY    66  57  72 S10       30.02S
FRIDAY HARBOR  CLOUDY    64  55  72 SW8       30.03R
EASTSOUND      MOCLDY    64  57  77 S12       29.99S
PORT ANGELES   CLOUDY    61  56  83 NW10      30.06R
NAS WHIDBEY    MOCLDY    62  55  77 SW13      30.04F
BURLINGTON     MOCLDY    66  59  77 SW3       30.04S
$$

WAZ020-022-039-040-504-511-512-290400-
SOUTHWEST INTERIOR

CITY           SKY/WX    TMP DP  RH WIND       PRES   REMARKS
SHELTON        MOCLDY    66  59  78 SW12      30.02S
OLYMPIA        PTCLDY    68  59  73 W6        30.04S
CHEHALIS       FAIR      68  63  83 NW3       30.04S
KELSO          CLEAR     72  57  60 CALM      30.06S
VANCOUVER      CLEAR     77  56  48 N6        29.99F
SCAPPOOSE, OR  CLEAR     74  58  57 N7        29.99F
PORTLAND, OR   PTCLDY    77  59  53 NW9       30.00S
$$

WAZ021-516-517-290400-
WASHINGTON COAST

CITY           SKY/WX    TMP DP  RH WIND       PRES   REMARKS
FORKS          PTCLDY    58  54  86 CALM      30.07F
HOQUIAM        CLOUDY    62  59  90 W7        30.07F
ASTORIA, OR    CLOUDY    64  60  87 NW7       30.06S
$$

WAZ019-023-024-040-518-519-290400-
CASCADE MOUNTAINS AND COLUMBIA GORGE

CITY           SKY/WX    TMP DP  RH WIND       PRES   REMARKS
STAMPEDE PASS  NOT AVBL
TROUTDALE, OR  CLEAR     78  55  44 NW3       29.98S
THE DALLES, OR CLEAR     80  48  32 NW15      29.92S
$$

WAZ026-027-041>044-520-521-290400-
EAST SLOPES

CITY           SKY/WX    TMP DP  RH WIND       PRES   REMARKS
OMAK           CLEAR     76  49  38 N10       29.90R
WENATCHEE      PTCLDY    79  43  27 NW17      29.93R
ELLENSBURG     PTCLDY    71  50  47 NW17      29.98S
YAKIMA         CLEAR     79  49  34 N8        29.94R
$$

WAZ028-034-035-290400-
COLUMBIA BASIN

CITY           SKY/WX    TMP DP  RH WIND       PRES   REMARKS
EPHRATA        CLEAR     81  40  23 NW13      29.90S
MOSES LAKE     CLEAR     80  46  30 W10       29.91R
PASCO          CLEAR     81  50  33 NW9       29.88R
HERMISTON, OR  CLEAR     80  45  28 W6        29.89S
$$

WAZ036>038-290400-
NORTHEAST WASHINGTON

CITY           SKY/WX    TMP DP  RH WIND       PRES   REMARKS
SPOKANE GEIGER PTCLDY    76  40  27 S10       29.95R
SPOKANE FELTS  CLEAR     78  37  22 SW8       29.93S
FAIRCHILD AFB  CLEAR     73  40  30 S8        29.96R
COEURDALENE,ID CLEAR     72  41  33 S5        29.94S
DEER PARK      CLEAR     76  39  26 SW9       29.93R
$$

WAZ029>033-290400-
SOUTHEAST WASHINGTON

CITY           SKY/WX    TMP DP  RH WIND       PRES   REMARKS
PULLMAN        PTCLDY    71  39  31 W6        30.00S
LEWISTON, ID   PTCLDY    80  40  23 NW9       29.92R
WALLA WALLA    CLEAR     81  40  23 S5        29.93S
PENDLETON, OR  CLEAR     79  32  18 W5        29.94S
$$


USA.gov is the U.S. government's official web portal to all federal, state and local government web resources and services.